| time (UTC) | temp C | wind direction | speed KPH | gust KPH | rain 1hr cm | rain 24hr cm | rain mn cm | humidity % | barometer mb |
| 20260506092416 | 15 | 135 | 3.2 | 4.8 | 0.00 | 1.19 | 0.00 | 76 | 1006.6 |
| 20260506091416 | 15 | 248 | 8.0 | 16.1 | 0.00 | 1.19 | 0.00 | 75 | 1006.9 |
| 20260506090416 | 15 | 158 | 4.8 | 8.0 | 0.00 | 1.19 | 0.00 | 77 | 1006.9 |
| 20260506085508 | 15 | 158 | 8.0 | 11.3 | 0.00 | 1.19 | 0.00 | 79 | 1007.0 |
| 20260506084416 | 14 | 225 | 12.9 | 17.7 | 0.00 | 1.19 | 0.00 | 79 | 1006.8 |
| 20260506083416 | 14 | 180 | 4.8 | 8.0 | 0.00 | 1.19 | 0.00 | 81 | 1006.8 |
| 20260506082416 | 13 | 135 | 3.2 | 8.0 | 0.00 | 1.19 | 0.00 | 83 | 1006.8 |
| 20260506081436 | 13 | 180 | 8.0 | 11.3 | 0.00 | 1.19 | 0.00 | 83 | 1006.6 |
| 20260506080416 | 13 | 180 | 9.7 | 11.3 | 0.00 | 1.19 | 0.00 | 85 | 1006.6 |
| 20260506073436 | 12 | 203 | 11.3 | 14.5 | 0.00 | 1.19 | 0.00 | 88 | 1006.7 |
| 20260506072416 | 12 | 203 | 8.0 | 12.9 | 0.00 | 1.19 | 0.00 | 90 | 1006.6 |
| 20260506071436 | 12 | 180 | 3.2 | 6.4 | 0.00 | 1.19 | 0.00 | 91 | 1006.4 |
| 20260506070416 | 12 | 158 | 4.8 | 8.0 | 0.00 | 1.19 | 0.00 | 91 | 1006.4 |
| 20260506062416 | 11 | 180 | 4.8 | 9.7 | 0.00 | 1.19 | 0.00 | 91 | 1006.3 |
| 20260506061416 | 11 | 225 | 6.4 | 11.3 | 0.00 | 1.19 | 0.00 | 91 | 1006.6 |
| 20260506060416 | 11 | 225 | 4.8 | 9.7 | 0.00 | 1.19 | 0.00 | 92 | 1006.6 |
| 20260506051416 | 11 | 203 | 6.4 | 9.7 | 0.00 | 1.19 | 0.00 | 92 | 1006.5 |
| 20260506050416 | 11 | 180 | 8.0 | 11.3 | 0.00 | 1.19 | 0.00 | 92 | 1006.5 |
| 20260506044416 | 11 | 180 | 9.7 | 11.3 | 0.00 | 1.19 | 0.00 | 92 | 1006.1 |
| 20260506043415 | 11 | 203 | 9.7 | 11.3 | 0.00 | 1.19 | 0.00 | 92 | 1006.1 |
| 20260506042416 | 11 | 158 | 4.8 | 6.4 | 0.00 | 1.19 | 0.00 | 92 | 1006.1 |
| 20260506041415 | 11 | 203 | 9.7 | 19.3 | 0.00 | 1.19 | 0.00 | 92 | 1006.1 |
| 20260506040415 | 11 | 203 | 4.8 | 9.7 | 0.00 | 1.19 | 0.00 | 92 | 1006.1 |
| 20260506035415 | 11 | 225 | 3.2 | 6.4 | 0.00 | 1.19 | 0.00 | 92 | 1006.0 |
| 20260506034456 | 11 | 203 | 11.3 | 16.1 | 0.00 | 1.19 | 0.00 | 92 | 1006.2 |
| 20260506033415 | 11 | 203 | 8.0 | 19.3 | 0.00 | 1.19 | 0.00 | 92 | 1006.2 |
| 20260506032536 | 11 | 203 | 8.0 | 11.3 | 0.00 | 1.19 | 0.00 | 92 | 1006.2 |
| 20260506031415 | 11 | 225 | 6.4 | 8.0 | 0.00 | 1.19 | 0.00 | 92 | 1006.4 |
| 20260506030436 | 11 | 203 | 6.4 | 11.3 | 0.00 | 1.19 | 0.00 | 92 | 1006.4 |
| 20260506025415 | 11 | 158 | 8.0 | 11.3 | 0.00 | 1.19 | 0.00 | 92 | 1006.3 |
| 20260506024416 | 11 | 203 | 6.4 | 9.7 | 0.00 | 1.19 | 0.00 | 92 | 1006.5 |
| 20260506023415 | 11 | 203 | 3.2 | 6.4 | 0.00 | 1.19 | 0.00 | 92 | 1006.5 |
| 20260506022436 | 11 | 225 | 4.8 | 8.0 | 0.00 | 1.19 | 0.00 | 92 | 1006.6 |
| 20260506021416 | 11 | 180 | 6.4 | 8.0 | 0.00 | 1.19 | 0.00 | 92 | 1006.3 |
| 20260506020415 | 11 | 225 | 8.0 | 9.7 | 0.00 | 1.19 | 0.00 | 92 | 1006.3 |
| 20260506015415 | 11 | 225 | 9.7 | 14.5 | 0.00 | 1.19 | 0.00 | 92 | 1006.1 |
| 20260506014415 | 11 | 203 | 6.4 | 9.7 | 0.00 | 1.19 | 0.00 | 92 | 1006.7 |
| 20260506013415 | 11 | 180 | 6.4 | 8.0 | 0.00 | 1.19 | 0.00 | 92 | 1006.7 |
| 20260506012415 | 11 | 225 | 3.2 | 4.8 | 0.00 | 1.19 | 0.00 | 92 | 1006.8 |
| 20260506011415 | 11 | 225 | 1.6 | 4.8 | 0.00 | 1.19 | 0.00 | 92 | 1006.6 |
| 20260506010415 | 11 | 225 | 4.8 | 6.4 | 0.00 | 1.19 | 0.00 | 92 | 1006.6 |
| 20260506005415 | 11 | 225 | 4.8 | 8.0 | 0.00 | 1.19 | 0.00 | 91 | 1006.5 |
| 20260506004415 | 11 | 0.0 | 0.0 | 0.00 | 1.19 | 0.00 | 92 | 1006.6 | |
| 20260506003415 | 11 | 225 | 3.2 | 6.4 | 0.00 | 1.19 | 0.00 | 92 | 1006.6 |
| 20260506002417 | 11 | 225 | 3.2 | 4.8 | 0.00 | 1.19 | 0.00 | 91 | 1006.5 |
| 20260506001437 | 11 | 225 | 4.8 | 9.7 | 0.00 | 1.19 | 0.00 | 91 | 1006.8 |
| 20260506000417 | 11 | 203 | 6.4 | 8.0 | 0.00 | 1.19 | 0.00 | 91 | 1006.8 |
| 20260505235417 | 11 | 203 | 4.8 | 9.7 | 0.00 | 1.19 | 0.00 | 91 | 1007.0 |
| 20260505234417 | 11 | 180 | 4.8 | 9.7 | 0.00 | 1.19 | 0.00 | 91 | 1006.9 |
| 20260505233417 | 11 | 225 | 6.4 | 16.1 | 0.00 | 1.19 | 0.00 | 91 | 1006.9 |
| 20260505232417 | 11 | 180 | 3.2 | 9.7 | 0.00 | 1.19 | 0.00 | 91 | 1007.0 |
| 20260505231417 | 11 | 180 | 1.6 | 4.8 | 0.00 | 1.19 | 0.00 | 91 | 1006.9 |
| 20260505230417 | 11 | 180 | 3.2 | 8.0 | 0.00 | 1.19 | 0.00 | 91 | 1006.9 |
| 20260505225417 | 11 | 0.0 | 0.0 | 0.00 | 1.19 | 0.00 | 91 | 1007.0 | |
| 20260505224417 | 11 | 203 | 3.2 | 4.8 | 0.00 | 1.19 | 0.00 | 91 | 1006.9 |
| 20260505223417 | 11 | 203 | 4.8 | 8.0 | 0.00 | 1.19 | 0.00 | 91 | 1006.7 |
| 20260505222417 | 11 | 0.0 | 3.2 | 0.00 | 1.19 | 0.00 | 90 | 1006.7 | |
| 20260505221417 | 11 | 203 | 1.6 | 1.6 | 0.00 | 1.19 | 0.00 | 91 | 1007.0 |
| 20260505220417 | 11 | 0.0 | 0.0 | 0.00 | 1.19 | 0.00 | 90 | 1007.0 | |
| 20260505215435 | 12 | 0.0 | 0.0 | 0.00 | 1.19 | 1.19 | 90 | 1006.7 | |
| 20260505214416 | 12 | 0.0 | 0.0 | 0.00 | 1.19 | 1.19 | 90 | 1007.1 | |
| 20260505213456 | 12 | 0.0 | 0.0 | 0.00 | 1.19 | 1.19 | 90 | 1007.0 | |
| 20260505212435 | 11 | 315 | 1.6 | 4.8 | 0.00 | 1.19 | 1.19 | 90 | 1007.0 |
| 20260505211415 | 11 | 0.0 | 0.0 | 0.00 | 1.19 | 1.19 | 90 | 1007.3 | |
| 20260505210415 | 11 | 0.0 | 0.0 | 0.00 | 1.19 | 1.19 | 89 | 1007.2 | |
| 20260505205415 | 11 | 0.0 | 0.0 | 0.00 | 1.19 | 1.19 | 89 | 1007.1 | |
| 20260505204416 | 11 | 0.0 | 0.0 | 0.00 | 1.19 | 1.19 | 89 | 1006.6 | |
| 20260505203415 | 12 | 0.0 | 0.0 | 0.00 | 1.19 | 1.19 | 89 | 1006.5 | |
| 20260505202415 | 12 | 0.0 | 0.0 | 0.00 | 1.19 | 1.19 | 89 | 1006.5 | |
| 20260505201415 | 12 | 0.0 | 0.0 | 0.00 | 1.19 | 1.19 | 89 | 1006.6 | |
| 20260505200415 | 12 | 315 | 1.6 | 3.2 | 0.00 | 1.19 | 1.19 | 89 | 1006.6 |
| 20260505195415 | 12 | 0.0 | 0.0 | 0.00 | 1.19 | 1.19 | 89 | 1006.6 | |
| 20260505194424 | 12 | 0.0 | 1.6 | 0.00 | 1.19 | 1.19 | 89 | 1006.3 | |
| 20260505193515 | 12 | 315 | 1.6 | 4.8 | 0.00 | 1.19 | 1.19 | 89 | 1006.3 |
| 20260505192515 | 12 | 0.0 | 0.0 | 0.05 | 1.19 | 1.19 | 88 | 1006.0 | |
| 20260505191515 | 12 | 90 | 1.6 | 4.8 | 0.05 | 1.19 | 1.19 | 88 | 1005.8 |
| 20260505190515 | 12 | 0.0 | 0.0 | 0.08 | 1.19 | 1.19 | 88 | 1005.9 | |
| 20260505185507 | 12 | 0.0 | 0.0 | 0.23 | 1.19 | 1.19 | 88 | 1005.9 | |
| 20260505184817 | 12 | 90 | 1.6 | 3.2 | 0.38 | 1.19 | 1.19 | 88 | 1005.8 |
| 20260505183837 | 12 | 90 | 4.8 | 8.0 | 0.74 | 1.19 | 1.19 | 87 | 1005.8 |
| 20260505182817 | 13 | 248 | 1.6 | 6.4 | 0.81 | 1.17 | 1.17 | 86 | 1005.6 |
| 20260505181817 | 13 | 293 | 11.3 | 20.9 | 1.12 | 1.14 | 1.14 | 86 | 1005.6 |
| 20260505180817 | 13 | 293 | 14.5 | 22.5 | 1.12 | 1.12 | 1.12 | 84 | 1006.0 |
| 20260505175817 | 13 | 270 | 11.3 | 30.6 | 0.99 | 0.99 | 0.99 | 83 | 1006.4 |
| 20260505174817 | 15 | 248 | 22.5 | 33.8 | 0.81 | 0.81 | 0.81 | 80 | 1006.4 |
| 20260505173837 | 17 | 203 | 25.7 | 32.2 | 0.46 | 0.46 | 0.46 | 79 | 1004.8 |
| 20260505172837 | 18 | 270 | 4.8 | 9.7 | 0.36 | 0.36 | 0.36 | 77 | 1004.6 |
| 20260505171855 | 18 | 225 | 3.2 | 6.4 | 0.03 | 0.03 | 0.03 | 74 | 1004.5 |
| 20260505170817 | 18 | 270 | 6.4 | 9.7 | 0.00 | 0.00 | 0.00 | 72 | 1004.3 |
| 20260505165837 | 18 | 0 | 3.2 | 6.4 | 0.00 | 0.00 | 0.00 | 71 | 1004.4 |
| 20260505164837 | 19 | 338 | 3.2 | 6.4 | 0.00 | 0.00 | 0.00 | 70 | 1004.5 |
| 20260505163817 | 19 | 338 | 3.2 | 8.0 | 0.00 | 0.00 | 0.00 | 69 | 1004.5 |
| 20260505162817 | 19 | 338 | 6.4 | 9.7 | 0.00 | 0.00 | 0.00 | 69 | 1004.8 |
| 20260505161817 | 19 | 338 | 11.3 | 20.9 | 0.00 | 0.00 | 0.00 | 69 | 1004.8 |
| 20260505160817 | 19 | 0 | 9.7 | 17.7 | 0.00 | 0.00 | 0.00 | 68 | 1004.7 |
| 20260505152816 | 20 | 0 | 8.0 | 16.1 | 0.00 | 0.00 | 0.00 | 66 | 1004.9 |
| 20260505151816 | 20 | 0 | 8.0 | 14.5 | 0.00 | 0.00 | 0.00 | 65 | 1004.9 |
| 20260505150817 | 20 | 0 | 11.3 | 16.1 | 0.00 | 0.00 | 0.00 | 63 | 1005.1 |
| 20260505124816 | 24 | 0.0 | 1.6 | 0.00 | 0.00 | 0.00 | 43 | 1005.7 | |
| 20260505123816 | 24 | 248 | 6.4 | 9.7 | 0.00 | 0.00 | 0.00 | 43 | 1006.0 |
| 20260505122816 | 24 | 270 | 4.8 | 9.7 | 0.00 | 0.00 | 0.00 | 44 | 1006.1 |
| 20260505121816 | 24 | 135 | 1.6 | 3.2 | 0.00 | 0.00 | 0.00 | 43 | 1006.1 |
| 20260505120816 | 23 | 135 | 3.2 | 6.4 | 0.00 | 0.00 | 0.00 | 44 | 1006.1 |
| 20260505115816 | 23 | 180 | 3.2 | 14.5 | 0.00 | 0.00 | 0.00 | 44 | 1006.3 |
| 20260505114816 | 24 | 248 | 4.8 | 9.7 | 0.00 | 0.00 | 0.00 | 47 | 1006.3 |
| 20260505113816 | 23 | 45 | 6.4 | 8.0 | 0.00 | 0.00 | 0.00 | 48 | 1006.5 |
| 20260505112816 | 23 | 315 | 1.6 | 6.4 | 0.00 | 0.00 | 0.00 | 49 | 1006.6 |
| 20260505111816 | 23 | 338 | 4.8 | 9.7 | 0.00 | 0.00 | 0.00 | 48 | 1006.6 |
| 20260505110816 | 24 | 293 | 4.8 | 9.7 | 0.00 | 0.00 | 0.00 | 47 | 1006.6 |
| 20260505101816 | 23 | 203 | 1.6 | 6.4 | 0.00 | 0.00 | 0.00 | 51 | 1007.1 |
| 20260505100836 | 23 | 203 | 4.8 | 8.0 | 0.00 | 0.00 | 0.00 | 51 | 1007.1 |
| 20260505095816 | 22 | 270 | 3.2 | 4.8 | 0.00 | 0.00 | 0.00 | 52 | 1007.2 |
| 20260505094816 | 22 | 270 | 3.2 | 6.4 | 0.00 | 0.00 | 0.00 | 53 | 1007.2 |
| 20260505093816 | 22 | 270 | 1.6 | 4.8 | 0.00 | 0.00 | 0.00 | 55 | 1007.6 |